Location: Brachstadt
(48.6975°N, 10.6755°E)
Time: 08:23:14
(UTC+00:00)

Cosmos 468 - Pass Details

Date: 18 September 2020
Orbit: 761 x 784 km, 74.0° (Epoch: 24 October)

Event Time Altitude Azimuth Distance (km) Brightness Sun altitude
Rises 19:09:34 0° 336° (NNW) 3,278 8.5 -17.9°
Reaches altitude 10° 19:11:58 10° 336° (NNW) 2,348 7.7 -18.2°
Maximum altitude 19:17:19 88° 249° (WSW) 791 4.5 -19.0°
Enters shadow 19:20:19 27° 160° (SSE) 1,470 5.6 -19.5°
